Погода в Кызылорде

Погода в Кызылорде : погода сейчас, прогноз погоды и архив. Всё, что Вы хотите узнать о погоде в Кызылорде!

Хотите узнать прогноз погоды в Кызылорде? Тогда Вам сюда: Погода в Кызылорде

Поиск расширенной информации на нашем сайте:

Другие новости

Новости СМИ2

Главная страница сайта

Новости сайта

02.10.2013

Напоминаем, что на нашем новом сайте вы можете получить высокодетализированные прогнозы погоды по пунктам России, СНГ и мира (включающие важные для авиации метеовеличины, такие как направление и скорость ветра, видимость, явления погоды, количество и форма облачности, нижняя и верхняя граница облачности), а также ознакомиться с разнообразными материалами по авиационной метеорологии и подборкой полезных ссылок на эту тему.

Сайт Метеоцентр.Азия посвящён разработке технологий оптимизации авиаметеорологического обслуживания, включая проектирование и перспективное создание нескольких автоматизированных авиаметеорологических систем:
- система выпуска высокодетальных прогностических карт явлений погоды для нижнего воздушного пространства по России и ближнему зарубежью;
- система верификации прогнозов TAF (выпускаемых синоптиками официальных АМСГ РФ и ближнего зарубежья) и AUTOTAF (выпускаемых сайтом Метеоцентр.Азия) - выявление ошибок, онлайн-сопоставление с фактической погодой METAR, автоматическое внесение коррективов в прогнозы при резком отклонении фактической погоды от прогноза, подсчёт оправдываемости прогнозов по элементам и в целом;
- система обработки, анализа и отображения авиаметеорологической информации для применения провайдерами метеорологической информации.

Рекомендуем: Цветы в шляпных коробках цветы в шляпных коробках.

Погода в Кызылорде - сегодня

Время (UTC), дата Ветер
(°,м/с) 
Видим.   Явления Облачность Т
(°С)
Тd
(°С)
f(%) Тe
(°С)
Pmin
(гПа)
dP
(гПа)
Po
(мм)
O2
(г/м3)
Тmin Tmax R s Состояние
почвы
15 21.01.17 220 (ЮЗ) н/о  дымка  10/10 600 м 
[Sc]
-5.6 -8.2 82 -5  1026.6  0.3  757  312    -2.4  0.0     
18 21.01.17 210 (ЮЗ) н/о  дымка  10/10 600 м 
[Sc]
-5.2 -7.7 83 -5  1025.4  -1.1  756  312    -2.4  0.0     
21 21.01.17 190 (Ю) н/о  дымка  10/10 600 м 
[Sc]
-5 -7.1 85 -5  1024.7  -0.7  756  311           
00 22.01.17 210 (ЮЗ) н/о  дымка  10/10 600 м 
[Sc]
-4.7 -6.4 88 -6  1023.7  -0.9  755  310           
03 22.01.17 210 (ЮЗ) 4000 м  дымка  10/10 600 м 
[Sc]
-4.5 -6.1 89 -4  1022.7  -1  755  310        равномерный
сухой снег
100% 
06 22.01.17 230 (ЮЗ) 20000 м    8/8 1000 м 
[Cu Sc]
-1.4 -4.4 80 -4  1021.7  -0.7  754  306  -5.6         
09 22.01.17 210 (ЮЗ) 20000 м    5/3 1500 м средняя 
[Sc diur, vesp|Ac cuf]
+2.1 -6.7 52 -1  1019.2  -2.4  752  301           
12 22.01.17 230 (ЮЗ) 20000 м    4/4 1000 м 
[Sc diur, vesp]
+0.9 -5.1 64 -2  1018.4  -0.7  752  302           
15 22.01.17 240 (ЮЗ) н/о  дымка  4/0 средняя 
[Ac lent]
-0.9 -3.7 81 -3  1018  -0.6  751  304    +3.8       
18 22.01.17 220 (ЮЗ) н/о  слаб. снег  10/10 1000 м 
[Cu Sc]
+0.9 -2.3 79 -2  1016.8  -1  750  302    +3.8       
21 22.01.17 240 (ЮЗ) н/о  слаб. снег  10/10 600 м 
[Ns]
+0.7 -0.1 94 -2  1016.1  -0.7  750  301           
00 23.01.17 250 (З) н/о  в посл. час снег  10/10 600 м 
[Ns]
-2.4 -4 89 -6  1019.5  752  306           
03 23.01.17 260 (З) 20000 м    9/9 600 м 
[Cu Sc]
-5.5 -8.9 77 -10  1023.7  755  311      равномерный
сухой снег
100% 
06 23.01.17 180 (Ю) 20000 м    3/3 1500 м 
[Sc diur, vesp]
-5.8 -11.5 64 -9  1026.3  2.5  757  313  -5.7       
09 23.01.17 250 (З) 20000 м    3/3 1500 м 
[Sc diur, vesp]
-3.4 -10.8 57 -7  1026.2  757  310           
12 23.01.17 220 (ЮЗ) 20000 м    6/3 1500 м средняя 
[Sc diur, vesp|Ac trans]
-3.8 -10 62 -7  1025.6  -0.6  757  310           
15 23.01.17 230 (ЮЗ) н/о    8/8 1000 м 
[Cu Sc]
-5.4 -10 70 -8  1026.6  0.9  757  312    -1.2       
18 23.01.17 220 (ЮЗ) н/о    10/10 600 м 
[Sc]
-3.6 -8.4 69 -7  1026.5  757  310    -1.2       
21 23.01.17 250 (З) н/о    10/10 600 м 
[Sc]
-3 -7.6 71 -6  1027.1  0.8  758  310           
00 24.01.17 230 (ЮЗ) н/о  {снег}  10/10 600 м 
[Cu Sc]
-3.8 -5.3 89 -7  1028.3  759  311           
03 24.01.17 260 (З) 4000 м  слаб. снег  10/10 600 м 
[Frnb|Ns]
-4.4 -6.7 84 -7  1030.7  2.3  760  312      0.0  равномерный
сухой снег
100% 
06 24.01.17 250 (З) 20000 м  в посл. час снег  10/10 600 м 
[Frnb|Ns]
-5.6 -9.8 72 -5  1033.8  763  315  -5.4    0.0     
09 24.01.17 270 (З) 20000 м    9/5 1000 м средняя 
[Cu Sc|Ac cast]
-3.4 -10.3 59 -5  1034.5  0.8  763  312           
12 24.01.17 250 (З) 20000 м    9/9 600 м 
[Cu Sc]
-3.2 -9.1 64 -4  1035.3  0.9  764  312           
15 24.01.17 220 (ЮЗ) н/о    4/4 1000 м 
[Sc diur, vesp]
-4.4 -8.7 72 -6  1036  0.6  764  314    -0.8  0.0     
Время (UTC), дата Ветер
(°,м/с) 
Видим.   Явления Облачность Т
(°С)
Тd
(°С)
f(%) Тe
(°С)
Pmin
(гПа)
dP
(гПа)
Po
(мм)
O2
(г/м3)
Тmin Tmax R s Состояние
почвы

Для получения пояснительной информации подведите курсор к названию столбца.

ПОГОДА в Кызылорде - архив

Всё, что Вы хотите узнать о погоде в Кызылорде - удобно и подробно!

Выберите нужную дату (начиная с 1 января 2015* года) и нажмите кнопку "Найти".
Будут отображены архивные сводки погоды по пункту Кызылорда, начиная с указанной даты.


Отображать данные в формате CSV (для использования в таблицах Excel)


Внимание! Наш архив погоды предназначен исключительно для личного некоммерческого использования в познавательных целях. Если Вам необходимы официальные справки о состоянии погоды (для производственных, юридических, коммерческих и т.п. целей), обращайтесь в органы Росгидромета.

*Примечание: данная дата относится к архиву по метеостанциям СССР (Россия, СНГ, Балтия).
Архив по метеостанциям Зарубежной Европы и Азии (кроме Китая) хранится 10 дней, по другим регионам земного шара (Китай, Африка, Америка, Австралия, Океания) - 1 день.

Кызылорда - район местоположения метеостанции


Название, широта, долгота, высота метеостанции:
Кызылорда (город) 44.8°ш. 65.5°д. 130 м над ур. моря [Казахстан]

Дополнительная информация

В oтличие oт бoльшинства пoгoдных сайтoв мы публикуем пoдрoбную метеoинфoрмацию в детальнoм прoфессиoнальнoм фoрмате.

Характеристики температуры и влажнoсти вoздуха измеряются на высoте 2 м в тени вдали oт зданий и деревьев.
Скoрoсть ветра измеряется на высoте 10 м (на урoвне рoста челoвека скoрoсть ветра ниже в 1.5-2 раза). Если метеoстанция нахoдится в гoрoде или в лесу, тo скoрoсть ветра занижена на 2-4 м/с пo сравнению с oткрытым местoм. Скoрoсть ветра над акватoриями крупных рек и oзёр, а также на вершинах хoлмoв на 2-5 м/с выше, чем в oбычных услoвиях.
Атмoсфернoе давление в разных тoчках местнoсти мoжет значительнo oтличаться oт давления на метеoстанции, в зависимoсти oт услoвий рельефа (при пoдъёме на 10 м давление пoнижается примернo на 1 мм рт.ст.).